Tracking 19792 objects as of 16-Jul-2019
HD Live streaming from Space Station
objects crossing your sky now

BRAZILSAT B2

Track BRAZILSAT B2 now!
BRAZILSAT B2 is classified as:


NORAD ID: 23536
Int'l Code: 1995-016A
Perigee: 36,081.0 km
Apogee: 36,090.1 km
Inclination: 8.2 °
Period: 1,451.0 minutes
Semi major axis: 42456 km
RCS: 7.5458 m2 (large)
Launch date: March 28, 1995
Source: Brazil (BRAZ)
Launch site: FRENCH GUIANA (FRGUI)

24 C-band; several X-band.
aabbcc
Your satellite tracking list
Your tracking list is empty




NASA's NSSDC Master Catalog

Two Line Element Set (TLE):
1 23536U 95016A   19195.50420910 -.00000255  00000-0  00000+0 0  9998
2 23536   8.1753  47.1105 0001075  24.6571 352.1874  0.99239917 88916
Source of the keplerian elements: AFSPC